This is the latest recevied weather packets stored in our database for station/object WI0K. If no packets are shown the sender has not sent any weather packets the latest 10 day(s).
| Time | Temp. | Humidity | Pressure | Rain* | Wind** | Luminosity | Snow |
|---|---|---|---|---|---|---|---|
| 1777504543 | 11.11° C | 54% | 1017.8 hPa | 0 mm | - | 158 W/m² | - |
| 1777504243 | 11.11° C | 55% | 831 hPa | 0 mm | - | 133 W/m² | - |
| 1777503942 | 11.11° C | 56% | 1017.8 hPa | 0 mm | - | 88 W/m² | - |
| 1777503641 | 11.11° C | 54% | 1017.8 hPa | 0 mm | - | 78 W/m² | - |
| 1777503341 | 11.11° C | 54% | 1017.6 hPa | 0 mm | - | 101 W/m² | - |
| 1777503041 | 11.11° C | 54% | 1017.6 hPa | 0 mm | - | 105 W/m² | - |
| 1777502740 | 11.67° C | 53% | 830.7 hPa | 0 mm | - | 118 W/m² | - |
| 1777502439 | 11.67° C | 52% | 830.7 hPa | 0 mm | - | 94 W/m² | - |
| 1777502139 | 11.67° C | 52% | 830.7 hPa | 0 mm | - | 89 W/m² | - |
| 1777501838 | 11.67° C | 52% | 830.6 hPa | 0 mm | - | 123 W/m² | - |
| 1777501537 | 12.22° C | 53% | 1017.4 hPa | 0 mm | - | 145 W/m² | - |
| 1777501237 | 12.22° C | 52% | 830.5 hPa | 0 mm | - | 165 W/m² | - |
| 1777500936 | 12.22° C | 48% | 830.4 hPa | 0 mm | - | 234 W/m² | - |
| 1777500635 | 12.22° C | 49% | 830.4 hPa | 0 mm | - | 332 W/m² | - |
| 1777500334 | 12.78° C | 49% | 1017.2 hPa | 0 mm | - | 768 W/m² | - |
| 1777500034 | 12.78° C | 42% | 830.2 hPa | 0 mm | - | 720 W/m² | - |
| 1777499733 | 12.22° C | 42% | 830.3 hPa | 0 mm | - | 776 W/m² | - |
| 1777499432 | 11.67° C | 42% | 830.2 hPa | 0 mm | - | 939 W/m² | - |
| 1777499132 | 11.67° C | 45% | 830.4 hPa | 0 mm | - | 300 W/m² | - |
| 1777498831 | 11.67° C | 46% | 830.6 hPa | 0 mm | - | 299 W/m² | - |
| 1777498530 | 11.67° C | 46% | 830.6 hPa | 0 mm | - | 330 W/m² | - |
| 1777498230 | 11.67° C | 45% | 1017.7 hPa | 0 mm | - | 288 W/m² | - |
| 1777497929 | 11.67° C | 46% | 831 hPa | 0 mm | - | 227 W/m² | - |
| 1777497628 | 12.22° C | 47% | 831.2 hPa | 0 mm | - | 170 W/m² | - |
| 1777497328 | 12.22° C | 44% | 831.2 hPa | 0 mm | - | 129 W/m² | - |
* Rain latest hour (hover to see other rain measurements)
** Current wind speed in m/s (hover to see current wind gust speed)